Time,TemperatureF,DewpointF,PressureIn,WindDirection,WindDirectionDegrees,WindSpeedMPH,WindSpeedGustMPH,Humidity,HourlyPrecipIn,Conditions,Clouds,dailyrainin,SoftwareType,DateUTC
2013-03-03 00:02:00,39.6,23.0,-100.00,NNE,22,1.0,6.0,51,0.00,,,0.00,meteohub,2013-03-03 07:02:00,
2013-03-03 00:07:00,39.6,23.0,-100.00,NNE,22,6.0,6.0,51,0.00,,,0.00,meteohub,2013-03-03 07:07:00,
2013-03-03 00:12:00,40.3,23.2,-100.00,East,90,1.0,6.0,50,0.00,,,0.00,meteohub,2013-03-03 07:12:00,
2013-03-03 00:17:00,39.9,22.8,-100.00,NNE,22,4.0,6.0,50,0.00,,,0.00,meteohub,2013-03-03 07:17:00,
2013-03-03 00:22:00,40.6,23.9,-100.00,WNW,292,5.0,6.0,51,0.00,,,0.00,meteohub,2013-03-03 07:22:00,
2013-03-03 00:27:00,39.4,22.8,-100.00,NNE,22,2.0,5.0,51,0.00,,,0.00,meteohub,2013-03-03 07:27:00,
2013-03-03 00:32:00,39.7,22.6,-100.00,East,90,0.0,5.0,50,0.00,,,0.00,meteohub,2013-03-03 07:32:00,
2013-03-03 00:38:00,39.4,22.8,-100.00,East,90,4.0,5.0,51,0.00,,,0.00,meteohub,2013-03-03 07:38:00,
2013-03-03 00:43:00,39.6,22.5,-100.00,NE,45,0.0,5.0,50,0.00,,,0.00,meteohub,2013-03-03 07:43:00,
2013-03-03 00:48:00,39.4,22.3,-100.00,NNE,22,1.0,5.0,50,0.00,,,0.00,meteohub,2013-03-03 07:48:00,
2013-03-03 00:53:00,39.2,22.1,-100.00,NNE,22,3.0,4.0,50,0.00,,,0.00,meteohub,2013-03-03 07:53:00,
2013-03-03 00:58:00,38.8,22.3,-100.00,NNE,22,4.0,4.0,51,0.00,,,0.00,meteohub,2013-03-03 07:58:00,
2013-03-03 01:03:00,39.6,22.5,-100.00,NNE,22,3.0,5.0,50,0.00,,,0.00,meteohub,2013-03-03 08:03:00,
2013-03-03 01:08:00,39.9,22.8,-100.00,NNW,337,0.0,5.0,50,0.00,,,0.00,meteohub,2013-03-03 08:08:00,
2013-03-03 01:13:00,39.2,22.1,-100.00,NNE,22,0.0,5.0,50,0.00,,,0.00,meteohub,2013-03-03 08:13:00,
2013-03-03 01:18:00,38.8,21.7,-100.00,NNE,22,0.0,5.0,50,0.00,,,0.00,meteohub,2013-03-03 08:18:00,
2013-03-03 01:23:00,38.8,21.7,-100.00,NNW,337,0.0,3.0,50,0.00,,,0.00,meteohub,2013-03-03 08:23:00,
2013-03-03 01:29:00,39.0,21.9,-100.00,WSW,247,0.0,3.0,50,0.00,,,0.00,meteohub,2013-03-03 08:29:00,
2013-03-03 01:34:00,38.5,21.4,-100.00,NNE,22,2.0,3.0,50,0.00,,,0.00,meteohub,2013-03-03 08:34:00,
2013-03-03 01:39:00,38.5,21.9,-100.00,ENE,67,1.0,3.0,51,0.00,,,0.00,meteohub,2013-03-03 08:39:00,
2013-03-03 01:44:00,38.5,21.9,-100.00,ESE,112,2.0,3.0,51,0.00,,,0.00,meteohub,2013-03-03 08:44:00,
2013-03-03 01:49:00,38.3,21.7,-100.00,NNE,22,1.0,3.0,51,0.00,,,0.00,meteohub,2013-03-03 08:49:00,
2013-03-03 01:54:00,38.7,21.6,-100.00,NNW,337,1.0,3.0,50,0.00,,,0.00,meteohub,2013-03-03 08:54:00,
2013-03-03 01:59:00,38.1,21.6,-100.00,ESE,112,3.0,3.0,51,0.00,,,0.00,meteohub,2013-03-03 08:59:00,
2013-03-03 02:04:00,38.5,21.9,-100.00,NNE,22,2.0,3.0,51,0.00,,,0.00,meteohub,2013-03-03 09:04:00,
2013-03-03 02:09:00,38.5,21.9,-100.00,ENE,67,0.0,3.0,51,0.00,,,0.00,meteohub,2013-03-03 09:09:00,
2013-03-03 02:15:00,39.0,21.9,-100.00,East,90,3.0,3.0,50,0.00,,,0.00,meteohub,2013-03-03 09:15:00,
2013-03-03 02:20:00,39.4,22.3,-100.00,ESE,112,0.0,5.0,50,-99.99,,,0.00,meteohub,2013-03-03 09:20:00,
2013-03-03 02:25:00,39.0,21.9,-100.00,ENE,67,2.0,5.0,50,-99.99,,,0.00,meteohub,2013-03-03 09:25:00,
2013-03-03 02:30:00,39.7,22.1,-100.00,East,90,1.0,4.0,49,-99.99,,,0.00,meteohub,2013-03-03 09:30:00,
2013-03-03 02:35:00,39.4,22.3,-100.00,East,90,3.0,4.0,50,-99.99,,,0.00,meteohub,2013-03-03 09:35:00,
2013-03-03 02:40:00,39.7,22.1,-100.00,NNE,22,1.0,4.0,49,-99.99,,,0.00,meteohub,2013-03-03 09:40:00,
2013-03-03 02:45:00,40.1,22.5,-100.00,NNW,337,0.0,4.0,49,-99.99,,,0.00,meteohub,2013-03-03 09:45:00,
2013-03-03 02:50:00,41.5,22.3,-100.00,WNW,292,4.0,5.0,46,-99.99,,,0.00,meteohub,2013-03-03 09:50:00,
2013-03-03 02:55:00,42.1,22.8,-100.00,SE,135,6.0,6.0,46,-99.99,,,0.00,meteohub,2013-03-03 09:55:00,
2013-03-03 03:01:00,46.2,23.2,-100.00,NNW,337,18.0,18.0,40,-99.99,,,0.00,meteohub,2013-03-03 10:01:00,
2013-03-03 03:06:00,49.3,24.8,-100.00,NNE,22,13.0,22.0,38,-99.99,,,0.00,meteohub,2013-03-03 10:06:00,
2013-03-03 03:11:00,50.9,24.8,-100.00,NNW,337,12.0,24.0,36,0.00,,,0.00,meteohub,2013-03-03 10:11:00,
2013-03-03 03:16:00,51.6,23.4,-100.00,NNW,337,8.0,24.0,33,0.00,,,0.00,meteohub,2013-03-03 10:16:00,
2013-03-03 03:21:00,52.2,22.5,-100.00,NNW,337,20.0,24.0,31,0.00,,,0.00,meteohub,2013-03-03 10:21:00,
2013-03-03 03:26:00,52.3,21.7,-100.00,NNW,337,6.0,24.0,30,0.00,,,0.00,meteohub,2013-03-03 10:26:00,
2013-03-03 03:31:00,51.8,22.1,-100.00,NNW,337,8.0,20.0,31,0.00,,,0.00,meteohub,2013-03-03 10:31:00,
2013-03-03 03:36:00,51.8,22.1,-100.00,NNW,337,6.0,20.0,31,0.00,,,0.00,meteohub,2013-03-03 10:36:00,
2013-03-03 03:42:00,51.3,22.5,-100.00,NNW,337,8.0,17.0,32,0.00,,,0.00,meteohub,2013-03-03 10:42:00,
2013-03-03 03:47:00,51.4,21.7,-100.00,NNW,337,11.0,17.0,31,0.00,,,0.00,meteohub,2013-03-03 10:47:00,
2013-03-03 03:52:00,51.8,20.5,-100.00,NNW,337,8.0,17.0,29,0.00,,,0.00,meteohub,2013-03-03 10:52:00,
2013-03-03 03:57:00,51.8,20.5,-100.00,NW,315,14.0,20.0,29,0.00,,,0.00,meteohub,2013-03-03 10:57:00,
2013-03-03 04:02:00,52.2,20.8,-100.00,NNW,337,20.0,21.0,29,0.00,,,0.00,meteohub,2013-03-03 11:02:00,
2013-03-03 04:07:00,52.5,20.3,-100.00,WNW,292,11.0,30.0,28,0.00,,,0.00,meteohub,2013-03-03 11:07:00,
2013-03-03 04:12:00,52.0,20.7,-100.00,NNE,22,13.0,30.0,29,-99.99,,,0.00,meteohub,2013-03-03 11:12:00,
2013-03-03 04:17:00,51.8,20.5,-100.00,WNW,292,17.0,30.0,29,-99.99,,,0.00,meteohub,2013-03-03 11:17:00,
2013-03-03 04:22:00,52.3,19.4,-100.00,NNW,337,11.0,19.0,27,-99.99,,,0.00,meteohub,2013-03-03 11:22:00,
2013-03-03 04:27:00,52.0,19.9,-100.00,NNW,337,13.0,20.0,28,-99.99,,,0.00,meteohub,2013-03-03 11:27:00,
2013-03-03 04:32:00,52.0,19.9,-100.00,NNW,337,8.0,20.0,28,-99.99,,,0.00,meteohub,2013-03-03 11:32:00,
2013-03-03 04:37:00,51.6,19.6,-100.00,NNW,337,12.0,20.0,28,-99.99,,,0.00,meteohub,2013-03-03 11:37:00,
2013-03-03 04:42:00,51.1,19.9,-100.00,NNW,337,11.0,17.0,29,-99.99,,,0.00,meteohub,2013-03-03 11:42:00,
2013-03-03 04:47:00,51.3,19.2,-100.00,NNW,337,11.0,15.0,28,-99.99,,,0.00,meteohub,2013-03-03 11:47:00,
2013-03-03 04:52:00,51.3,19.2,-100.00,NNW,337,7.0,19.0,28,-99.99,,,0.00,meteohub,2013-03-03 11:52:00,
2013-03-03 04:57:00,51.1,19.0,-100.00,NNW,337,15.0,19.0,28,-99.99,,,0.00,meteohub,2013-03-03 11:57:00,
2013-03-03 05:02:00,51.1,19.9,-100.00,NNW,337,8.0,25.0,29,-99.99,,,0.00,meteohub,2013-03-03 12:02:00,
2013-03-03 05:07:00,50.7,19.6,-100.00,NNW,337,6.0,25.0,29,-99.99,,,0.00,meteohub,2013-03-03 12:07:00,
2013-03-03 05:12:00,50.9,18.9,-100.00,WNW,292,11.0,25.0,28,-99.99,,,0.00,meteohub,2013-03-03 12:12:00,
2013-03-03 05:17:00,50.7,18.9,-100.00,NNW,337,13.0,14.0,28,-99.99,,,0.00,meteohub,2013-03-03 12:17:00,
2013-03-03 05:22:00,51.1,19.0,-100.00,WNW,292,5.0,15.0,28,-99.99,,,0.00,meteohub,2013-03-03 12:22:00,
2013-03-03 05:27:00,50.7,18.9,-100.00,NNW,337,3.0,15.0,28,-99.99,,,0.00,meteohub,2013-03-03 12:27:00,
2013-03-03 05:32:00,50.7,19.6,-100.00,WNW,292,6.0,15.0,29,-99.99,,,0.00,meteohub,2013-03-03 12:32:00,
2013-03-03 05:37:00,50.7,18.9,-100.00,NW,315,11.0,17.0,28,-99.99,,,0.00,meteohub,2013-03-03 12:37:00,
2013-03-03 05:42:00,50.5,18.7,-100.00,WNW,292,13.0,17.0,28,-99.99,,,0.00,meteohub,2013-03-03 12:42:00,
2013-03-03 05:47:00,50.7,18.9,-100.00,WNW,292,7.0,15.0,28,-99.99,,,0.00,meteohub,2013-03-03 12:47:00,
2013-03-03 05:52:00,50.4,19.2,-100.00,NNW,337,7.0,15.0,29,-99.99,,,0.00,meteohub,2013-03-03 12:52:00,
2013-03-03 05:57:00,50.2,19.2,-100.00,NNW,337,3.0,15.0,29,-99.99,,,0.00,meteohub,2013-03-03 12:57:00,
2013-03-03 06:02:00,50.0,18.1,-100.00,WNW,292,8.0,14.0,28,-99.99,,,0.00,meteohub,2013-03-03 13:02:00,
2013-03-03 06:07:00,50.4,18.5,-100.00,NNW,337,10.0,14.0,28,-99.99,,,0.00,meteohub,2013-03-03 13:07:00,
2013-03-03 06:12:00,50.2,18.3,-100.00,NNW,337,9.0,14.0,28,-99.99,,,0.00,meteohub,2013-03-03 13:12:00,
2013-03-03 06:17:00,50.4,18.5,-100.00,NNW,337,13.0,18.0,28,-99.99,,,0.00,meteohub,2013-03-03 13:17:00,
2013-03-03 06:22:00,50.4,18.5,-100.00,WNW,292,8.0,18.0,28,-99.99,,,0.00,meteohub,2013-03-03 13:22:00,
2013-03-03 06:27:00,50.9,18.9,-100.00,NNW,337,12.0,24.0,28,-99.99,,,0.00,meteohub,2013-03-03 13:27:00,
2013-03-03 06:32:00,50.5,18.7,-100.00,WNW,292,10.0,24.0,28,-99.99,,,0.00,meteohub,2013-03-03 13:32:00,
2013-03-03 06:37:00,50.4,18.5,-100.00,NNW,337,8.0,24.0,28,-99.99,,,0.00,meteohub,2013-03-03 13:37:00,
2013-03-03 06:42:00,50.4,19.2,-100.00,NNW,337,7.0,21.0,29,-99.99,,,0.00,meteohub,2013-03-03 13:42:00,
2013-03-03 06:47:00,50.5,19.4,-100.00,NNW,337,18.0,26.0,29,-99.99,,,0.00,meteohub,2013-03-03 13:47:00,
2013-03-03 06:52:00,50.7,19.6,-100.00,NNW,337,15.0,26.0,29,-99.99,,,0.00,meteohub,2013-03-03 13:52:00,
2013-03-03 06:57:00,50.9,19.8,-100.00,NNW,337,15.0,26.0,29,-99.99,,,0.00,meteohub,2013-03-03 13:57:00,
2013-03-03 07:02:00,50.9,19.8,-100.00,NNW,337,5.0,23.0,29,-99.99,,,0.00,meteohub,2013-03-03 14:02:00,
2013-03-03 07:07:00,51.1,19.0,-100.00,NNW,337,14.0,23.0,28,-99.99,,,0.00,meteohub,2013-03-03 14:07:00,
2013-03-03 07:12:00,51.3,19.2,-100.00,NNW,337,17.0,22.0,28,-99.99,,,0.00,meteohub,2013-03-03 14:12:00,
2013-03-03 07:17:00,51.4,19.4,-100.00,NNW,337,19.0,19.0,28,-99.99,,,0.00,meteohub,2013-03-03 14:17:00,
2013-03-03 07:22:00,51.6,19.6,-100.00,NNW,337,12.0,23.0,28,-99.99,,,0.00,meteohub,2013-03-03 14:22:00,
2013-03-03 07:27:00,51.6,19.6,-100.00,WNW,292,15.0,24.0,28,-99.99,,,0.00,meteohub,2013-03-03 14:27:00,
2013-03-03 07:32:00,52.0,19.0,-100.00,NNW,337,20.0,24.0,27,-99.99,,,0.00,meteohub,2013-03-03 14:32:00,
2013-03-03 07:37:00,52.0,19.9,-100.00,WNW,292,13.0,24.0,28,-99.99,,,0.00,meteohub,2013-03-03 14:37:00,
2013-03-03 07:42:00,52.2,20.1,-100.00,NNW,337,7.0,20.0,28,-99.99,,,0.00,meteohub,2013-03-03 14:42:00,
2013-03-03 07:47:00,52.2,19.2,-100.00,NNW,337,7.0,20.0,27,-99.99,,,0.00,meteohub,2013-03-03 14:47:00,
2013-03-03 07:52:00,52.2,20.1,-100.00,NNW,337,19.0,19.0,28,-99.99,,,0.00,meteohub,2013-03-03 14:52:00,
2013-03-03 07:57:00,52.3,19.4,-100.00,NNW,337,12.0,23.0,27,-99.99,,,0.00,meteohub,2013-03-03 14:57:00,
2013-03-03 08:03:00,52.7,19.6,-100.00,NNE,22,16.0,23.0,27,-99.99,,,0.00,meteohub,2013-03-03 15:03:00,
2013-03-03 08:08:00,52.7,19.6,-100.00,NNW,337,13.0,24.0,27,-99.99,,,0.00,meteohub,2013-03-03 15:08:00,
2013-03-03 08:13:00,52.9,19.8,-100.00,NNW,337,13.0,24.0,27,-99.99,,,0.00,meteohub,2013-03-03 15:13:00,
2013-03-03 08:18:00,52.9,19.8,-100.00,NNW,337,19.0,24.0,27,-99.99,,,0.00,meteohub,2013-03-03 15:18:00,
2013-03-03 08:23:00,52.9,19.8,-100.00,NNW,337,11.0,24.0,27,-99.99,,,0.00,meteohub,2013-03-03 15:23:00,
2013-03-03 08:28:00,52.9,19.8,-100.00,NNW,337,11.0,24.0,27,-99.99,,,0.00,meteohub,2013-03-03 15:28:00,
2013-03-03 08:33:00,52.9,19.8,-100.00,NNW,337,11.0,24.0,27,-99.99,,,0.00,meteohub,2013-03-03 15:33:00,
2013-03-03 08:38:00,52.7,19.6,-100.00,NNW,337,7.0,23.0,27,-99.99,,,0.00,meteohub,2013-03-03 15:38:00,
2013-03-03 08:43:00,52.9,19.8,-100.00,NNW,337,6.0,23.0,27,-99.99,,,0.00,meteohub,2013-03-03 15:43:00,
2013-03-03 08:48:00,53.2,20.1,-100.00,NNW,337,11.0,20.0,27,-99.99,,,0.00,meteohub,2013-03-03 15:48:00,
2013-03-03 08:53:00,53.6,19.6,-100.00,WNW,292,6.0,16.0,26,-99.99,,,0.00,meteohub,2013-03-03 15:53:00,
2013-03-03 08:58:00,53.6,20.5,-100.00,SE,135,3.0,16.0,27,-99.99,,,0.00,meteohub,2013-03-03 15:58:00,
2013-03-03 09:04:00,53.8,19.8,-100.00,SSE,157,9.0,16.0,26,-99.99,,,0.00,meteohub,2013-03-03 16:04:00,
2013-03-03 09:09:00,52.9,21.6,-100.00,South,180,6.0,13.0,29,-99.99,,,0.00,meteohub,2013-03-03 16:09:00,
2013-03-03 09:14:00,52.5,21.2,-100.00,SSE,157,4.0,9.0,29,-99.99,,,0.00,meteohub,2013-03-03 16:14:00,
2013-03-03 09:19:00,52.7,21.4,-100.00,SSE,157,5.0,9.0,29,-99.99,,,0.00,meteohub,2013-03-03 16:19:00,
2013-03-03 09:24:00,52.9,23.0,-100.00,SSE,157,4.0,8.0,31,-99.99,,,0.00,meteohub,2013-03-03 16:24:00,
2013-03-03 09:29:00,52.3,24.1,-100.00,SSE,157,3.0,8.0,33,-99.99,,,0.00,meteohub,2013-03-03 16:29:00,
2013-03-03 09:34:00,52.3,21.7,-100.00,SSE,157,6.0,8.0,30,-99.99,,,0.00,meteohub,2013-03-03 16:34:00,
2013-03-03 09:39:00,52.0,23.0,-100.00,SSE,157,4.0,7.0,32,-99.99,,,0.00,meteohub,2013-03-03 16:39:00,
2013-03-03 09:44:00,53.2,24.1,-100.00,SSE,157,4.0,8.0,32,-99.99,,,0.00,meteohub,2013-03-03 16:44:00,
2013-03-03 09:49:00,56.1,25.9,-100.00,ESE,112,3.0,8.0,31,-99.99,,,0.00,meteohub,2013-03-03 16:49:00,
2013-03-03 09:54:00,56.8,26.6,-100.00,SSW,202,5.0,8.0,31,-99.99,,,0.00,meteohub,2013-03-03 16:54:00,
2013-03-03 09:59:00,55.9,26.4,-100.00,SSE,157,7.0,7.0,32,-99.99,,,0.00,meteohub,2013-03-03 16:59:00,
2013-03-03 10:04:00,55.8,25.5,-100.00,SE,135,5.0,9.0,31,-99.99,,,0.00,meteohub,2013-03-03 17:04:00,
2013-03-03 10:09:00,56.5,24.6,-100.00,ESE,112,7.0,9.0,29,-99.99,,,0.00,meteohub,2013-03-03 17:09:00,
2013-03-03 10:15:00,55.8,24.8,-100.00,SSE,157,9.0,9.0,30,-99.99,,,0.00,meteohub,2013-03-03 17:15:00,
2013-03-03 10:20:00,54.9,25.5,-100.00,SSE,157,8.0,11.0,32,-99.99,,,0.00,meteohub,2013-03-03 17:20:00,
2013-03-03 10:25:00,54.9,24.8,-100.00,SE,135,8.0,11.0,31,-99.99,,,0.00,meteohub,2013-03-03 17:25:00,
2013-03-03 10:30:00,54.5,23.7,-100.00,SSE,157,8.0,13.0,30,-99.99,,,0.00,meteohub,2013-03-03 17:30:00,
2013-03-03 10:35:00,55.2,25.9,-100.00,SSE,157,6.0,13.0,32,-99.99,,,0.00,meteohub,2013-03-03 17:35:00,
2013-03-03 10:40:00,55.6,24.6,-100.00,SSE,157,6.0,13.0,30,-99.99,,,0.00,meteohub,2013-03-03 17:40:00,
2013-03-03 10:45:00,55.8,24.8,-100.00,SSW,202,2.0,9.0,30,-99.99,,,0.00,meteohub,2013-03-03 17:45:00,
2013-03-03 10:50:00,58.3,26.2,-100.00,SSW,202,3.0,8.0,29,-99.99,,,0.00,meteohub,2013-03-03 17:50:00,
2013-03-03 10:55:00,58.5,26.2,-100.00,SE,135,5.0,7.0,29,-99.99,,,0.00,meteohub,2013-03-03 17:55:00,
2013-03-03 11:00:00,57.6,25.5,-100.00,SSW,202,4.0,7.0,29,-99.99,,,0.00,meteohub,2013-03-03 18:00:00,
2013-03-03 11:05:00,57.2,24.4,-100.00,South,180,4.0,7.0,28,-99.99,,,0.00,meteohub,2013-03-03 18:05:00,
2013-03-03 11:10:00,58.1,25.2,-100.00,SSE,157,6.0,8.0,28,-99.99,,,0.00,meteohub,2013-03-03 18:10:00,
2013-03-03 11:16:00,57.2,25.2,-100.00,SSE,157,8.0,9.0,29,-99.99,,,0.00,meteohub,2013-03-03 18:16:00,
2013-03-03 11:21:00,57.9,25.9,-100.00,SSW,202,5.0,9.0,29,-99.99,,,0.00,meteohub,2013-03-03 18:21:00,
2013-03-03 11:26:00,58.6,26.4,-100.00,SSE,157,10.0,10.0,29,-99.99,,,0.00,meteohub,2013-03-03 18:26:00,
2013-03-03 11:31:00,59.7,24.8,-100.00,SSE,157,4.0,11.0,26,-99.99,,,0.00,meteohub,2013-03-03 18:31:00,
2013-03-03 11:36:00,61.5,27.1,-100.00,SSE,157,5.0,11.0,27,-99.99,,,0.00,meteohub,2013-03-03 18:36:00,
2013-03-03 11:41:00,60.3,25.2,-100.00,SSE,157,3.0,11.0,26,-99.99,,,0.00,meteohub,2013-03-03 18:41:00,
2013-03-03 11:46:00,59.4,25.3,-100.00,South,180,7.0,8.0,27,-99.99,,,0.00,meteohub,2013-03-03 18:46:00,
2013-03-03 11:51:00,60.6,26.4,-100.00,ESE,112,3.0,8.0,27,-99.99,,,0.00,meteohub,2013-03-03 18:51:00,
2013-03-03 11:56:00,61.2,25.0,-100.00,SSW,202,5.0,8.0,25,-99.99,,,0.00,meteohub,2013-03-03 18:56:00,
2013-03-03 12:01:00,60.3,24.3,-100.00,SSE,157,9.0,9.0,25,-99.99,,,0.00,meteohub,2013-03-03 19:01:00,
2013-03-03 12:06:00,60.4,23.5,-100.00,ENE,67,3.0,11.0,24,-99.99,,,0.00,meteohub,2013-03-03 19:06:00,
2013-03-03 12:12:00,59.7,23.9,-100.00,SSE,157,7.0,11.0,25,-99.99,,,0.00,meteohub,2013-03-03 19:12:00,
2013-03-03 12:17:00,58.6,23.9,-100.00,SSE,157,4.0,9.0,26,-99.99,,,0.00,meteohub,2013-03-03 19:17:00,
2013-03-03 12:22:00,57.9,22.3,-100.00,SSE,157,4.0,8.0,25,-99.99,,,0.00,meteohub,2013-03-03 19:22:00,
2013-03-03 12:27:00,57.6,21.9,-100.00,SE,135,4.0,10.0,25,-99.99,,,0.00,meteohub,2013-03-03 19:27:00,
2013-03-03 12:32:00,57.7,23.0,-100.00,SSE,157,4.0,10.0,26,-99.99,,,0.00,meteohub,2013-03-03 19:32:00,
2013-03-03 12:37:00,58.5,23.7,-100.00,ESE,112,6.0,10.0,26,-99.99,,,0.00,meteohub,2013-03-03 19:37:00,
2013-03-03 12:42:00,59.2,23.4,-100.00,SSE,157,4.0,10.0,25,-99.99,,,0.00,meteohub,2013-03-03 19:42:00,
2013-03-03 12:47:00,59.2,25.2,-100.00,ESE,112,3.0,10.0,27,-99.99,,,0.00,meteohub,2013-03-03 19:47:00,
2013-03-03 12:52:00,59.9,25.0,-100.00,ESE,112,4.0,9.0,26,-99.99,,,0.00,meteohub,2013-03-03 19:52:00,
2013-03-03 12:57:00,59.2,23.4,-100.00,East,90,3.0,9.0,25,-99.99,,,0.00,meteohub,2013-03-03 19:57:00,
2013-03-03 13:02:00,59.7,24.8,-100.00,ESE,112,2.0,8.0,26,-99.99,,,0.00,meteohub,2013-03-03 20:02:00,
2013-03-03 13:07:00,59.9,23.9,-100.00,NNW,337,4.0,6.0,25,-99.99,,,0.00,meteohub,2013-03-03 20:07:00,
2013-03-03 13:12:00,60.4,24.4,-100.00,SSE,157,0.0,6.0,25,-99.99,,,0.00,meteohub,2013-03-03 20:12:00,
2013-03-03 13:17:00,61.5,24.4,-100.00,NW,315,2.0,6.0,24,-99.99,,,0.00,meteohub,2013-03-03 20:17:00,
2013-03-03 13:22:00,63.0,25.5,-100.00,SE,135,6.0,6.0,24,-99.99,,,0.00,meteohub,2013-03-03 20:22:00,
2013-03-03 13:27:00,63.3,27.0,-100.00,SSE,157,2.0,6.0,25,-99.99,,,0.00,meteohub,2013-03-03 20:27:00,
2013-03-03 13:32:00,62.8,26.4,-100.00,ENE,67,2.0,6.0,25,-99.99,,,0.00,meteohub,2013-03-03 20:32:00,
2013-03-03 13:37:00,63.5,27.0,-100.00,ENE,67,3.0,7.0,25,-99.99,,,0.00,meteohub,2013-03-03 20:37:00,
2013-03-03 13:42:00,62.8,24.4,-100.00,East,90,6.0,7.0,23,-99.99,,,0.00,meteohub,2013-03-03 20:42:00,
2013-03-03 13:47:00,62.8,26.4,-100.00,ENE,67,3.0,6.0,25,-99.99,,,0.00,meteohub,2013-03-03 20:47:00,
2013-03-03 13:52:00,63.0,25.5,-100.00,NNW,337,1.0,6.0,24,-99.99,,,0.00,meteohub,2013-03-03 20:52:00,
2013-03-03 13:58:00,62.2,25.0,-100.00,WSW,247,2.0,6.0,24,-99.99,,,0.00,meteohub,2013-03-03 20:58:00,
2013-03-03 14:03:00,62.8,26.4,-100.00,East,90,2.0,7.0,25,-99.99,,,0.00,meteohub,2013-03-03 21:03:00,
2013-03-03 14:08:00,63.0,25.5,-100.00,East,90,2.0,7.0,24,-99.99,,,0.00,meteohub,2013-03-03 21:08:00,
2013-03-03 14:13:00,62.2,26.1,-100.00,SSE,157,6.0,7.0,25,-99.99,,,0.00,meteohub,2013-03-03 21:13:00,
2013-03-03 14:18:00,62.1,24.8,-100.00,ENE,67,1.0,6.0,24,-99.99,,,0.00,meteohub,2013-03-03 21:18:00,
2013-03-03 14:23:00,61.5,25.3,-100.00,ESE,112,5.0,6.0,25,-99.99,,,0.00,meteohub,2013-03-03 21:23:00,
2013-03-03 14:28:00,60.4,26.2,-100.00,ENE,67,3.0,6.0,27,-99.99,,,0.00,meteohub,2013-03-03 21:28:00,
2013-03-03 14:33:00,61.0,26.8,-100.00,NNE,22,1.0,7.0,27,-99.99,,,0.00,meteohub,2013-03-03 21:33:00,
2013-03-03 14:38:00,60.1,24.1,-100.00,NNW,337,3.0,7.0,25,-99.99,,,0.00,meteohub,2013-03-03 21:38:00,
2013-03-03 14:43:00,60.1,15.1,-100.00,NNW,337,4.0,7.0,17,-99.99,,,0.00,meteohub,2013-03-03 21:43:00,
2013-03-03 14:48:00,60.1,10.8,-100.00,WNW,292,6.0,8.0,14,-99.99,,,0.00,meteohub,2013-03-03 21:48:00,
2013-03-03 14:53:00,61.7,6.6,-100.00,NNW,337,4.0,8.0,11,-99.99,,,0.00,meteohub,2013-03-03 21:53:00,
2013-03-03 14:58:00,63.5,1.0,-100.00,NNW,337,5.0,8.0,8,-99.99,,,0.00,meteohub,2013-03-03 21:58:00,
2013-03-03 15:04:00,66.2,17.2,-100.00,NNW,337,5.0,7.0,15,-99.99,,,0.00,meteohub,2013-03-03 22:04:00,
2013-03-03 15:09:00,66.6,0.5,-100.00,NNW,337,8.0,8.0,7,-99.99,,,0.00,meteohub,2013-03-03 22:09:00,
2013-03-03 15:14:00,65.3,-11.9,-100.00,SSW,202,5.0,9.0,4,-99.99,,,0.00,meteohub,2013-03-03 22:14:00,
2013-03-03 15:19:00,65.3,2.5,-100.00,WSW,247,6.0,10.0,8,-99.99,,,0.00,meteohub,2013-03-03 22:19:00,
2013-03-03 15:24:00,66.6,0.5,-100.00,SSW,202,11.0,15.0,7,-99.99,,,0.00,meteohub,2013-03-03 22:24:00,
2013-03-03 15:29:00,65.7,-7.2,-100.00,SSW,202,7.0,15.0,5,0.00,,,0.00,meteohub,2013-03-03 22:29:00,
2013-03-03 15:34:00,64.8,12.7,-100.00,SSW,202,6.0,14.0,13,0.00,,,0.00,meteohub,2013-03-03 22:34:00,
2013-03-03 15:39:00,64.6,6.8,-100.00,WNW,292,6.0,14.0,10,0.00,,,0.00,meteohub,2013-03-03 22:39:00,
2013-03-03 15:44:00,63.5,8.1,-100.00,South,180,8.0,12.0,11,0.00,,,0.00,meteohub,2013-03-03 22:44:00,
2013-03-03 15:49:00,63.1,7.7,-100.00,SSW,202,10.0,12.0,11,0.00,,,0.00,meteohub,2013-03-03 22:49:00,
2013-03-03 15:54:00,63.0,0.7,-100.00,NNE,22,2.0,11.0,8,0.00,,,0.00,meteohub,2013-03-03 22:54:00,
2013-03-03 15:59:00,60.6,7.7,-100.00,WSW,247,4.0,11.0,12,0.00,,,0.00,meteohub,2013-03-03 22:59:00,
2013-03-03 16:05:00,59.7,14.9,-100.00,SE,135,4.0,17.0,17,0.00,,,0.00,meteohub,2013-03-03 23:05:00,
2013-03-03 16:10:00,59.2,14.4,-100.00,SSW,202,6.0,17.0,17,0.00,,,0.00,meteohub,2013-03-03 23:10:00,
2013-03-03 16:15:00,59.2,14.4,-100.00,WSW,247,11.0,12.0,17,0.00,,,0.00,meteohub,2013-03-03 23:15:00,
2013-03-03 16:20:00,58.5,16.3,-100.00,South,180,3.0,12.0,19,0.00,,,0.00,meteohub,2013-03-03 23:20:00,
2013-03-03 16:25:00,57.6,19.0,-100.00,SSW,202,8.0,12.0,22,-99.99,,,0.00,meteohub,2013-03-03 23:25:00,
2013-03-03 16:30:00,56.5,21.0,-100.00,SSW,202,10.0,15.0,25,-99.99,,,0.00,meteohub,2013-03-03 23:30:00,
2013-03-03 16:35:00,56.3,20.8,-100.00,SSW,202,8.0,17.0,25,-99.99,,,0.00,meteohub,2013-03-03 23:35:00,
2013-03-03 16:40:00,56.3,20.8,-100.00,SSE,157,8.0,17.0,25,-99.99,,,0.00,meteohub,2013-03-03 23:40:00,
2013-03-03 16:45:00,55.6,21.2,-100.00,SSW,202,8.0,17.0,26,-99.99,,,0.00,meteohub,2013-03-03 23:45:00,
2013-03-03 16:50:00,55.6,20.3,-100.00,SSW,202,10.0,17.0,25,-99.99,,,0.00,meteohub,2013-03-03 23:50:00,
2013-03-03 16:55:00,56.3,21.9,-100.00,SSW,202,9.0,17.0,26,-99.99,,,0.00,meteohub,2013-03-03 23:55:00,
2013-03-03 17:00:00,56.5,21.9,-100.00,SSW,202,5.0,15.0,26,-99.99,,,0.00,meteohub,2013-03-04 00:00:00,
2013-03-03 17:05:00,54.9,20.7,-100.00,SSW,202,4.0,13.0,26,-99.99,,,0.00,meteohub,2013-03-04 00:05:00,
2013-03-03 17:10:00,54.0,20.7,-100.00,SSE,157,5.0,12.0,27,-99.99,,,0.00,meteohub,2013-03-04 00:10:00,
2013-03-03 17:15:00,53.1,20.8,-100.00,SSE,157,7.0,13.0,28,-99.99,,,0.00,meteohub,2013-03-04 00:15:00,
2013-03-03 17:21:00,52.5,20.3,-100.00,SSW,202,8.0,13.0,28,-99.99,,,0.00,meteohub,2013-03-04 00:21:00,
2013-03-03 17:26:00,52.2,20.8,-100.00,SSE,157,9.0,13.0,29,-99.99,,,0.00,meteohub,2013-03-04 00:26:00,
2013-03-03 17:31:00,51.6,21.2,-100.00,SE,135,4.0,11.0,30,-99.99,,,0.00,meteohub,2013-03-04 00:31:00,
2013-03-03 17:36:00,50.9,19.8,-100.00,SE,135,3.0,11.0,29,-99.99,,,0.00,meteohub,2013-03-04 00:36:00,
2013-03-03 17:41:00,50.5,20.3,-100.00,SSE,157,4.0,10.0,30,-99.99,,,0.00,meteohub,2013-03-04 00:41:00,
2013-03-03 17:46:00,49.8,19.6,-100.00,East,90,4.0,5.0,30,-99.99,,,0.00,meteohub,2013-03-04 00:46:00,
2013-03-03 17:51:00,49.3,19.2,-100.00,NNE,22,3.0,5.0,30,-99.99,,,0.00,meteohub,2013-03-04 00:51:00,
2013-03-03 17:56:00,49.1,19.8,-100.00,East,90,4.0,4.0,31,-99.99,,,0.00,meteohub,2013-03-04 00:56:00,
2013-03-03 18:01:00,48.7,20.1,-100.00,SE,135,3.0,5.0,32,-99.99,,,0.00,meteohub,2013-03-04 01:01:00,
2013-03-03 18:06:00,48.6,19.9,-100.00,ENE,67,2.0,5.0,32,-99.99,,,0.00,meteohub,2013-03-04 01:06:00,
2013-03-03 18:11:00,48.6,19.9,-100.00,SE,135,3.0,5.0,32,-99.99,,,0.00,meteohub,2013-03-04 01:11:00,
2013-03-03 18:16:00,48.2,20.5,-100.00,ESE,112,3.0,5.0,33,-99.99,,,0.00,meteohub,2013-03-04 01:16:00,
2013-03-03 18:21:00,48.0,21.0,-100.00,NNE,22,3.0,5.0,34,-99.99,,,0.00,meteohub,2013-03-04 01:21:00,
2013-03-03 18:27:00,48.2,21.2,-100.00,NNW,337,1.0,6.0,34,-99.99,,,0.00,meteohub,2013-03-04 01:27:00,
2013-03-03 18:32:00,48.0,22.3,-100.00,SSE,157,4.0,6.0,36,-99.99,,,0.00,meteohub,2013-03-04 01:32:00,
2013-03-03 18:37:00,47.1,22.1,-100.00,ENE,67,0.0,6.0,37,-99.99,,,0.00,meteohub,2013-03-04 01:37:00,
2013-03-03 18:42:00,46.2,21.9,-100.00,ESE,112,3.0,5.0,38,-99.99,,,0.00,meteohub,2013-03-04 01:42:00,
2013-03-03 18:47:00,46.0,21.2,-100.00,NNE,22,2.0,5.0,37,-99.99,,,0.00,meteohub,2013-03-04 01:47:00,
2013-03-03 18:52:00,45.9,21.7,-100.00,ESE,112,3.0,4.0,38,-99.99,,,0.00,meteohub,2013-03-04 01:52:00,
2013-03-03 18:57:00,46.2,22.6,-100.00,SSW,202,2.0,7.0,39,-99.99,,,0.00,meteohub,2013-03-04 01:57:00,
2013-03-03 19:02:00,46.0,23.0,-100.00,WSW,247,5.0,7.0,40,-99.99,,,0.00,meteohub,2013-03-04 02:02:00,
2013-03-03 19:07:00,46.9,23.2,-100.00,WSW,247,4.0,7.0,39,-99.99,,,0.00,meteohub,2013-03-04 02:07:00,
2013-03-03 19:12:00,46.9,23.2,-100.00,SSW,202,3.0,9.0,39,-99.99,,,0.00,meteohub,2013-03-04 02:12:00,
2013-03-03 19:17:00,46.9,23.2,-100.00,NNW,337,6.0,9.0,39,-99.99,,,0.00,meteohub,2013-03-04 02:17:00,
2013-03-03 19:22:00,47.7,23.9,-100.00,NNW,337,10.0,13.0,39,-99.99,,,0.00,meteohub,2013-03-04 02:22:00,
2013-03-03 19:28:00,47.7,23.9,-100.00,East,90,3.0,13.0,39,-99.99,,,0.00,meteohub,2013-03-04 02:28:00,
2013-03-03 19:33:00,47.7,23.9,-100.00,NNE,22,4.0,13.0,39,-99.99,,,0.00,meteohub,2013-03-04 02:33:00,
2013-03-03 19:38:00,47.3,24.3,-100.00,NNW,337,9.0,12.0,40,-99.99,,,0.00,meteohub,2013-03-04 02:38:00,
2013-03-03 19:43:00,46.8,23.7,-100.00,SSE,157,4.0,12.0,40,-99.99,,,0.00,meteohub,2013-03-04 02:43:00,
2013-03-03 19:48:00,46.8,23.7,-100.00,NNW,337,3.0,12.0,40,-99.99,,,0.00,meteohub,2013-03-04 02:48:00,
2013-03-03 19:53:00,46.9,23.9,-100.00,NNW,337,18.0,18.0,40,-99.99,,,0.00,meteohub,2013-03-04 02:53:00,
2013-03-03 19:58:00,48.2,24.4,-100.00,WNW,292,10.0,13.0,39,-99.99,,,0.00,meteohub,2013-03-04 02:58:00,
2013-03-03 20:03:00,48.4,24.6,-100.00,NNW,337,7.0,27.0,39,-99.99,,,0.00,meteohub,2013-03-04 03:03:00,
2013-03-03 20:08:00,48.4,24.6,-100.00,WNW,292,8.0,27.0,39,-99.99,,,0.00,meteohub,2013-03-04 03:08:00,
2013-03-03 20:13:00,47.8,24.6,-100.00,SSW,202,7.0,20.0,40,-99.99,,,0.00,meteohub,2013-03-04 03:13:00,
2013-03-03 20:18:00,47.8,24.6,-100.00,NNE,22,7.0,20.0,40,-99.99,,,0.00,meteohub,2013-03-04 03:18:00,
2013-03-03 20:24:00,48.0,24.3,-100.00,SSW,202,2.0,13.0,39,-99.99,,,0.00,meteohub,2013-03-04 03:24:00,
2013-03-03 20:29:00,48.0,24.3,-100.00,NNW,337,8.0,15.0,39,-99.99,,,0.00,meteohub,2013-03-04 03:29:00,
2013-03-03 20:34:00,48.4,24.6,-100.00,WNW,292,9.0,15.0,39,-99.99,,,0.00,meteohub,2013-03-04 03:34:00,
2013-03-03 20:39:00,48.2,24.4,-100.00,NNE,22,8.0,18.0,39,-99.99,,,0.00,meteohub,2013-03-04 03:39:00,
2013-03-03 20:44:00,48.0,24.8,-100.00,WNW,292,10.0,18.0,40,-99.99,,,0.00,meteohub,2013-03-04 03:44:00,
2013-03-03 20:49:00,47.8,24.6,-100.00,NNW,337,5.0,18.0,40,-99.99,,,0.00,meteohub,2013-03-04 03:49:00,
2013-03-03 20:54:00,47.7,24.4,-100.00,WNW,292,4.0,28.0,40,-99.99,,,0.00,meteohub,2013-03-04 03:54:00,
2013-03-03 20:59:00,47.5,24.4,-100.00,WNW,292,8.0,28.0,40,-99.99,,,0.00,meteohub,2013-03-04 03:59:00,
2013-03-03 21:04:00,47.3,24.3,-100.00,NNW,337,10.0,28.0,40,-99.99,,,0.00,meteohub,2013-03-04 04:04:00,
2013-03-03 21:09:00,46.9,23.9,-100.00,WNW,292,3.0,19.0,40,-99.99,,,0.00,meteohub,2013-03-04 04:09:00,
2013-03-03 21:14:00,46.2,23.9,-100.00,East,90,4.0,17.0,41,-99.99,,,0.00,meteohub,2013-03-04 04:14:00,
2013-03-03 21:20:00,45.5,23.2,-100.00,ESE,112,5.0,10.0,41,-99.99,,,0.00,meteohub,2013-03-04 04:20:00,
2013-03-03 21:25:00,45.1,23.4,-100.00,WNW,292,11.0,11.0,42,-99.99,,,0.00,meteohub,2013-03-04 04:25:00,
2013-03-03 21:30:00,45.9,24.1,-100.00,NNE,22,5.0,15.0,42,-99.99,,,0.00,meteohub,2013-03-04 04:30:00,
2013-03-03 21:35:00,45.1,23.4,-100.00,NE,45,2.0,15.0,42,-99.99,,,0.00,meteohub,2013-03-04 04:35:00,
2013-03-03 21:40:00,43.5,22.5,-100.00,NNW,337,3.0,15.0,43,-99.99,,,0.00,meteohub,2013-03-04 04:40:00,
2013-03-03 21:45:00,43.3,22.8,-100.00,WNW,292,15.0,15.0,44,-99.99,,,0.00,meteohub,2013-03-04 04:45:00,
2013-03-03 21:50:00,44.8,23.7,-100.00,WNW,292,2.0,15.0,43,-99.99,,,0.00,meteohub,2013-03-04 04:50:00,
2013-03-03 21:55:00,44.4,23.9,-100.00,NNW,337,6.0,15.0,44,-99.99,,,0.00,meteohub,2013-03-04 04:55:00,
2013-03-03 22:00:00,44.8,24.3,-100.00,NNW,337,4.0,15.0,44,-99.99,,,0.00,meteohub,2013-03-04 05:00:00,
2013-03-03 22:01:00,44.8,24.3,-100.00,NNW,337,9.0,15.0,44,-99.99,,,0.00,meteohub,2013-03-04 05:01:00,
2013-03-03 22:03:00,45.7,24.4,-100.00,NNW,337,5.0,15.0,43,-99.99,,,0.00,meteohub,2013-03-04 05:03:00,
2013-03-03 22:08:00,46.2,25.0,-100.00,NNW,337,6.0,10.0,43,-99.99,,,0.00,meteohub,2013-03-04 05:08:00,